Location: Newark
(44.4156°N, 12.1972°E)
Time: 14:30:21
(UTC+00:00)

STARLINK-1074 - Pass Details

Date: 30 January 2020
Orbit: 348 x 351 km, 53.0° (Epoch: 28 February)

Event Time Altitude Azimuth Distance (km) Brightness Sun altitude
Rises 18:05:45 0° 302° (WNW) 2,173 7.5 -19.5°
Reaches altitude 10° 18:07:46 10° 301° (WNW) 1,325 6.3 -19.9°
Enters shadow 18:10:18 59° 274° (W) 415 3.2 -20.3°
